owner,sensor,date,latitude,longitude,vertical_datum,direction_of_sea_water_velocity,sea_water_speed,upward_sea_water_velocity,qcFlag 
TABS,ioos:station:wmo:42043:1,1996-02-01T00:00:00Z,28.9818,-94.9186,2.0,221.8013356,16.98287373,-99999.0,'11111222,11111222,99999999' 
TABS,ioos:station:wmo:42043:1,1996-02-01T00:30:00Z,28.9818,-94.9186,2.0,223.5075524,16.02140131,-99999.0,'11111222,11111222,99999999' 
TABS,ioos:station:wmo:42043:1,1996-02-01T01:00:00Z,28.9818,-94.9186,2.0,236.7711457,15.49327919,-99999.0,'11111222,11111222,99999999' 
TABS,ioos:station:wmo:42043:1,1996-02-01T01:30:00Z,28.9818,-94.9186,2.0,243.4559531,11.99426947,-99999.0,'11111222,11111222,99999999' 
TABS,ioos:station:wmo:42043:1,1996-02-01T02:00:00Z,28.9818,-94.9186,2.0,248.4855904,16.6607953,-99999.0,'11111222,11111222,99999999' 
TABS,ioos:station:wmo:42043:1,1996-02-01T02:30:00Z,28.9818,-94.9186,2.0,262.864717,14.41159603,-99999.0,'11111222,11111222,99999999' 
TABS,ioos:station:wmo:42043:1,1996-02-01T03:00:00Z,28.9818,-94.9186,2.0,251.9544337,13.94596716,-99999.0,'11111222,11111222,99999999' 
TABS,ioos:station:wmo:42043:1,1996-02-01T03:30:00Z,28.9818,-94.9186,2.0,251.3874252,16.35537832,-99999.0,'11111222,11111222,99999999' 
TABS,ioos:station:wmo:42043:1,1996-02-01T04:00:00Z,28.9818,-94.9186,2.0,267.9407061,16.70078142,-99999.0,'11111222,11111222,99999999' 
TABS,ioos:station:wmo:42043:1,1996-02-01T04:30:00Z,28.9818,-94.9186,2.0,255.1855673,15.72260793,-99999.0,'11111222,11111222,99999999' 
TABS,ioos:station:wmo:42043:1,1996-02-01T05:00:00Z,28.9818,-94.9186,2.0,255.129304,14.49546481,-99999.0,'11111222,11111222,99999999' 
TABS,ioos:station:wmo:42043:1,1996-02-01T05:30:00Z,28.9818,-94.9186,2.0,262.6461648,17.42329762,-99999.0,'11111222,11111222,99999999' 
TABS,ioos:station:wmo:42043:1,1996-02-01T06:00:00Z,28.9818,-94.9186,2.0,252.0440364,17.38681109,-99999.0,'11111222,11111222,99999999' 
TABS,ioos:station:wmo:42043:1,1996-02-01T06:30:00Z,28.9818,-94.9186,2.0,252.8664245,20.74040742,-99999.0,'11111222,11111222,99999999' 
TABS,ioos:station:wmo:42043:1,1996-02-01T07:00:00Z,28.9818,-94.9186,2.0,254.6917929,27.65101987,-99999.0,'11111222,11111222,99999999' 
TABS,ioos:station:wmo:42043:1,1996-02-01T07:30:00Z,28.9818,-94.9186,2.0,255.8947817,32.41733487,-99999.0,'11111222,11111222,99999999' 
TABS,ioos:station:wmo:42043:1,1996-02-01T08:00:00Z,28.9818,-94.9186,2.0,250.4424871,38.26773706,-99999.0,'11111222,11111222,99999999' 
TABS,ioos:station:wmo:42043:1,1996-02-01T08:30:00Z,28.9818,-94.9186,2.0,242.250062,38.72355614,-99999.0,'11111222,11111222,99999999' 
TABS,ioos:station:wmo:42043:1,1996-02-01T09:00:00Z,28.9818,-94.9186,2.0,238.5140727,38.79115879,-99999.0,'11111222,11111222,99999999' 
TABS,ioos:station:wmo:42043:1,1996-02-01T09:30:00Z,28.9818,-94.9186,2.0,236.7920915,43.8034542,-99999.0,'11111222,11111222,99999999' 
TABS,ioos:station:wmo:42043:1,1996-02-01T10:00:00Z,28.9818,-94.9186,2.0,234.1336229,49.08753406,-99999.0,'11111222,11111222,99999999' 
TABS,ioos:station:wmo:42043:1,1996-02-01T10:30:00Z,28.9818,-94.9186,2.0,232.2736447,49.92757354,-99999.0,'11111222,11111222,99999999' 
TABS,ioos:station:wmo:42043:1,1996-02-01T11:00:00Z,28.9818,-94.9186,2.0,234.0122978,48.43374547,-99999.0,'11111222,11111222,99999999' 
TABS,ioos:station:wmo:42043:1,1996-02-01T11:30:00Z,28.9818,-94.9186,2.0,232.3672966,49.29636498,-99999.0,'11111222,11111222,99999999' 
TABS,ioos:station:wmo:42043:1,1996-02-01T12:00:00Z,28.9818,-94.9186,2.0,231.0147032,49.25955948,-99999.0,'11111222,11111222,99999999' 
TABS,ioos:station:wmo:42043:1,1996-02-01T12:30:00Z,28.9818,-94.9186,2.0,232.2605886,49.17765855,-99999.0,'11111222,11111222,99999999' 
TABS,ioos:station:wmo:42043:1,1996-02-01T13:00:00Z,28.9818,-94.9186,2.0,230.8881356,50.31450288,-99999.0,'11111222,11111222,99999999' 
TABS,ioos:station:wmo:42043:1,1996-02-01T13:30:00Z,28.9818,-94.9186,2.0,230.3889835,49.31240919,-99999.0,'11111222,11111222,99999999' 
TABS,ioos:station:wmo:42043:1,1996-02-01T14:00:00Z,28.9818,-94.9186,2.0,229.4970077,49.77802125,-99999.0,'11111222,11111222,99999999' 
TABS,ioos:station:wmo:42043:1,1996-02-01T14:30:00Z,28.9818,-94.9186,2.0,232.7445092,48.48309602,-99999.0,'11111222,11111222,99999999' 
TABS,ioos:station:wmo:42043:1,1996-02-01T15:00:00Z,28.9818,-94.9186,2.0,231.9803683,45.96324836,-99999.0,'11111222,11111222,99999999' 
TABS,ioos:station:wmo:42043:1,1996-02-01T15:30:00Z,28.9818,-94.9186,2.0,233.7889235,38.59455402,-99999.0,'11111222,11111222,99999999' 
TABS,ioos:station:wmo:42043:1,1996-02-01T16:00:00Z,28.9818,-94.9186,2.0,230.225787,39.35854291,-99999.0,'11111222,11111222,99999999' 
TABS,ioos:station:wmo:42043:1,1996-02-01T16:30:00Z,28.9818,-94.9186,2.0,230.6021802,39.90882734,-99999.0,'11111222,11111222,99999999' 
TABS,ioos:station:wmo:42043:1,1996-02-01T17:00:00Z,28.9818,-94.9186,2.0,227.4820152,39.01941184,-99999.0,'11111222,11111222,99999999' 
TABS,ioos:station:wmo:42043:1,1996-02-01T17:30:00Z,28.9818,-94.9186,2.0,229.8768175,34.68188144,-99999.0,'11111222,11111222,99999999' 
TABS,ioos:station:wmo:42043:1,1996-02-01T18:00:00Z,28.9818,-94.9186,2.0,233.7431086,34.0039483,-99999.0,'11111222,11111222,99999999' 
TABS,ioos:station:wmo:42043:1,1996-02-01T18:30:00Z,28.9818,-94.9186,2.0,232.0805878,34.18773172,-99999.0,'11111222,11111222,99999999' 
TABS,ioos:station:wmo:42043:1,1996-02-01T19:00:00Z,28.9818,-94.9186,2.0,233.5352356,33.34883506,-99999.0,'11111222,11111222,99999999' 
TABS,ioos:station:wmo:42043:1,1996-02-01T19:30:00Z,28.9818,-94.9186,2.0,234.4020841,32.24595013,-99999.0,'11111222,11111222,99999999' 
TABS,ioos:station:wmo:42043:1,1996-02-01T20:00:00Z,28.9818,-94.9186,2.0,230.4166938,34.60478869,-99999.0,'11111222,11111222,99999999' 
TABS,ioos:station:wmo:42043:1,1996-02-01T20:30:00Z,28.9818,-94.9186,2.0,228.9104343,34.00616709,-99999.0,'11111222,11111222,99999999' 
TABS,ioos:station:wmo:42043:1,1996-02-01T21:00:00Z,28.9818,-94.9186,2.0,233.0352372,33.9420462,-99999.0,'11111222,11111222,99999999' 
TABS,ioos:station:wmo:42043:1,1996-02-01T21:30:00Z,28.9818,-94.9186,2.0,229.9456393,35.43069855,-99999.0,'11111222,11111222,99999999' 
TABS,ioos:station:wmo:42043:1,1996-02-01T22:00:00Z,28.9818,-94.9186,2.0,231.8713236,37.88313741,-99999.0,'11111222,11111222,99999999' 
TABS,ioos:station:wmo:42043:1,1996-02-01T22:30:00Z,28.9818,-94.9186,2.0,231.5739721,40.51493552,-99999.0,'11111222,11111222,99999999' 
TABS,ioos:station:wmo:42043:1,1996-02-01T23:00:00Z,28.9818,-94.9186,2.0,231.056759,37.92882281,-99999.0,'11111222,11111222,99999999' 
TABS,ioos:station:wmo:42043:1,1996-02-01T23:30:00Z,28.9818,-94.9186,2.0,226.2225583,34.45809049,-99999.0,'11111222,11111222,99999999' 
TABS,ioos:station:wmo:42043:1,1996-02-02T00:00:00Z,28.9818,-94.9186,2.0,218.723594,40.49119657,-99999.0,'11111222,11111222,99999999' 
TABS,ioos:station:wmo:42043:1,1996-02-02T00:30:00Z,28.9818,-94.9186,2.0,217.3120869,38.58715071,-99999.0,'11111222,11111222,99999999' 
TABS,ioos:station:wmo:42043:1,1996-02-02T01:00:00Z,28.9818,-94.9186,2.0,219.2342468,36.74328782,-99999.0,'11111222,11111222,99999999' 
TABS,ioos:station:wmo:42043:1,1996-02-02T01:30:00Z,28.9818,-94.9186,2.0,213.2437911,32.06818985,-99999.0,'11111222,11111222,99999999' 
TABS,ioos:station:wmo:42043:1,1996-02-02T02:00:00Z,28.9818,-94.9186,2.0,217.9957836,31.95217207,-99999.0,'11111222,11111222,99999999' 
TABS,ioos:station:wmo:42043:1,1996-02-02T02:30:00Z,28.9818,-94.9186,2.0,230.1472475,23.48581274,-99999.0,'11111222,11111222,99999999' 
TABS,ioos:station:wmo:42043:1,1996-02-02T03:00:00Z,28.9818,-94.9186,2.0,233.4407885,27.2644017,-99999.0,'11111222,11111222,99999999' 
TABS,ioos:station:wmo:42043:1,1996-02-02T03:30:00Z,28.9818,-94.9186,2.0,234.9393361,27.48770816,-99999.0,'11111222,11111222,99999999' 
TABS,ioos:station:wmo:42043:1,1996-02-02T04:00:00Z,28.9818,-94.9186,2.0,222.4200643,30.47890418,-99999.0,'11111222,11111222,99999999' 
TABS,ioos:station:wmo:42043:1,1996-02-02T04:30:00Z,28.9818,-94.9186,2.0,220.3527597,28.54072354,-99999.0,'11111222,11111222,99999999' 
TABS,ioos:station:wmo:42043:1,1996-02-02T05:00:00Z,28.9818,-94.9186,2.0,222.2285549,28.37401981,-99999.0,'11111222,11111222,99999999' 
TABS,ioos:station:wmo:42043:1,1996-02-02T05:30:00Z,28.9818,-94.9186,2.0,211.3468589,41.52073699,-99999.0,'11111222,11111222,99999999' 
TABS,ioos:station:wmo:42043:1,1996-02-02T06:00:00Z,28.9818,-94.9186,2.0,222.2305418,30.58980386,-99999.0,'11111222,11111222,99999999' 
TABS,ioos:station:wmo:42043:1,1996-02-02T06:30:00Z,28.9818,-94.9186,2.0,226.2782223,42.46526345,-99999.0,'11111222,11111222,99999999' 
TABS,ioos:station:wmo:42043:1,1996-02-02T07:00:00Z,28.9818,-94.9186,2.0,220.9536465,62.73530744,-99999.0,'11111222,11111222,99999999' 
TABS,ioos:station:wmo:42043:1,1996-02-02T07:30:00Z,28.9818,-94.9186,2.0,224.8997153,60.79006251,-99999.0,'11111222,11111222,99999999' 
TABS,ioos:station:wmo:42043:1,1996-02-02T08:00:00Z,28.9818,-94.9186,2.0,235.3396742,46.36848607,-99999.0,'11111222,11111222,99999999' 
TABS,ioos:station:wmo:42043:1,1996-02-02T08:30:00Z,28.9818,-94.9186,2.0,227.1107105,68.52980155,-99999.0,'11111222,11111222,99999999' 
TABS,ioos:station:wmo:42043:1,1996-02-02T09:00:00Z,28.9818,-94.9186,2.0,224.1182824,68.49139581,-99999.0,'11111222,11111222,99999999' 
TABS,ioos:station:wmo:42043:1,1996-02-02T09:30:00Z,28.9818,-94.9186,2.0,218.6825645,69.85496761,-99999.0,'11111222,11111222,99999999' 
TABS,ioos:station:wmo:42043:1,1996-02-02T10:00:00Z,28.9818,-94.9186,2.0,227.9270255,59.81443304,-99999.0,'11111222,11111222,99999999' 
TABS,ioos:station:wmo:42043:1,1996-02-02T10:30:00Z,28.9818,-94.9186,2.0,214.593768,73.48196037,-99999.0,'11111222,11111222,99999999' 
TABS,ioos:station:wmo:42043:1,1996-02-02T11:00:00Z,28.9818,-94.9186,2.0,213.730866,65.74863116,-99999.0,'11111222,11111222,99999999' 
TABS,ioos:station:wmo:42043:1,1996-02-02T11:30:00Z,28.9818,-94.9186,2.0,212.3062177,68.5753899,-99999.0,'11111222,11111222,99999999' 
TABS,ioos:station:wmo:42043:1,1996-02-02T12:00:00Z,28.9818,-94.9186,2.0,218.6976226,63.38625876,-99999.0,'11111222,11111222,99999999' 
TABS,ioos:station:wmo:42043:1,1996-02-02T12:30:00Z,28.9818,-94.9186,2.0,221.6302009,62.80065286,-99999.0,'11111222,11111222,99999999' 
TABS,ioos:station:wmo:42043:1,1996-02-02T13:00:00Z,28.9818,-94.9186,2.0,225.9296506,51.84482713,-99999.0,'11111222,11111222,99999999' 
TABS,ioos:station:wmo:42043:1,1996-02-02T13:30:00Z,28.9818,-94.9186,2.0,224.3012786,51.62970172,-99999.0,'11111222,11111222,99999999' 
TABS,ioos:station:wmo:42043:1,1996-02-02T14:00:00Z,28.9818,-94.9186,2.0,227.3690497,40.70758406,-99999.0,'11111222,11111222,99999999' 
TABS,ioos:station:wmo:42043:1,1996-02-02T14:30:00Z,28.9818,-94.9186,2.0,226.9347287,46.90792897,-99999.0,'11111222,11111222,99999999' 
TABS,ioos:station:wmo:42043:1,1996-02-02T15:00:00Z,28.9818,-94.9186,2.0,232.9320327,33.61220017,-99999.0,'11111222,11111222,99999999' 
TABS,ioos:station:wmo:42043:1,1996-02-02T15:30:00Z,28.9818,-94.9186,2.0,234.4639829,33.32703557,-99999.0,'11111222,11111222,99999999' 
TABS,ioos:station:wmo:42043:1,1996-02-02T16:00:00Z,28.9818,-94.9186,2.0,230.4742275,35.35396583,-99999.0,'11111222,11111222,99999999' 
TABS,ioos:station:wmo:42043:1,1996-02-02T16:30:00Z,28.9818,-94.9186,2.0,231.5711558,34.04459575,-99999.0,'11111222,11111222,99999999' 
TABS,ioos:station:wmo:42043:1,1996-02-02T17:00:00Z,28.9818,-94.9186,2.0,229.7165124,35.94376163,-99999.0,'11111222,11111222,99999999' 
TABS,ioos:station:wmo:42043:1,1996-02-02T17:30:00Z,28.9818,-94.9186,2.0,229.3481217,33.38669495,-99999.0,'11111222,11111222,99999999' 
TABS,ioos:station:wmo:42043:1,1996-02-02T18:00:00Z,28.9818,-94.9186,2.0,228.8942447,29.46246595,-99999.0,'11111222,11111222,99999999' 
TABS,ioos:station:wmo:42043:1,1996-02-02T18:30:00Z,28.9818,-94.9186,2.0,235.6570197,25.08239622,-99999.0,'11111222,11111222,99999999' 
TABS,ioos:station:wmo:42043:1,1996-02-02T19:00:00Z,28.9818,-94.9186,2.0,239.027516,23.45414675,-99999.0,'11111222,11111222,99999999' 
TABS,ioos:station:wmo:42043:1,1996-02-02T19:30:00Z,28.9818,-94.9186,2.0,230.4502602,24.3426149,-99999.0,'11111222,11111222,99999999' 
TABS,ioos:station:wmo:42043:1,1996-02-02T20:00:00Z,28.9818,-94.9186,2.0,235.3045067,23.55896857,-99999.0,'11111222,11111222,99999999' 
TABS,ioos:station:wmo:42043:1,1996-02-02T20:30:00Z,28.9818,-94.9186,2.0,224.1557833,21.60445556,-99999.0,'11111222,11111222,99999999' 
TABS,ioos:station:wmo:42043:1,1996-02-02T21:00:00Z,28.9818,-94.9186,2.0,235.5682832,19.50766516,-99999.0,'11111222,11111222,99999999' 
TABS,ioos:station:wmo:42043:1,1996-02-02T21:30:00Z,28.9818,-94.9186,2.0,226.3286057,22.86691278,-99999.0,'11111222,11111222,99999999' 
TABS,ioos:station:wmo:42043:1,1996-02-02T22:00:00Z,28.9818,-94.9186,2.0,227.6747696,22.57423531,-99999.0,'11111222,11111222,99999999' 
TABS,ioos:station:wmo:42043:1,1996-02-02T22:30:00Z,28.9818,-94.9186,2.0,235.799574,23.05702713,-99999.0,'11111222,11111222,99999999' 
TABS,ioos:station:wmo:42043:1,1996-02-02T23:00:00Z,28.9818,-94.9186,2.0,232.4465663,20.29544284,-99999.0,'11111222,11111222,99999999' 
TABS,ioos:station:wmo:42043:1,1996-02-02T23:30:00Z,28.9818,-94.9186,2.0,233.0536934,19.58201726,-99999.0,'11111222,11111222,99999999' 
TABS,ioos:station:wmo:42043:1,1996-02-03T00:00:00Z,28.9818,-94.9186,2.0,218.7098516,23.10591699,-99999.0,'11111222,11111222,99999999' 
TABS,ioos:station:wmo:42043:1,1996-02-03T00:30:00Z,28.9818,-94.9186,2.0,219.7016072,20.52306507,-99999.0,'11111222,11111222,99999999' 
TABS,ioos:station:wmo:42043:1,1996-02-03T01:00:00Z,28.9818,-94.9186,2.0,218.2718496,17.0811153,-99999.0,'11111222,11111222,99999999' 
TABS,ioos:station:wmo:42043:1,1996-02-03T01:30:00Z,28.9818,-94.9186,2.0,212.1935592,19.01328483,-99999.0,'11111222,11111222,99999999' 
TABS,ioos:station:wmo:42043:1,1996-02-03T02:00:00Z,28.9818,-94.9186,2.0,215.7549432,13.77660698,-99999.0,'11111222,11111222,99999999' 
TABS,ioos:station:wmo:42043:1,1996-02-03T02:30:00Z,28.9818,-94.9186,2.0,219.3144875,12.70556571,-99999.0,'11111222,11111222,99999999' 
TABS,ioos:station:wmo:42043:1,1996-02-03T03:00:00Z,28.9818,-94.9186,2.0,203.5721813,12.67790598,-99999.0,'11111222,11111222,99999999' 
TABS,ioos:station:wmo:42043:1,1996-02-03T03:30:00Z,28.9818,-94.9186,2.0,227.93035,12.44721656,-99999.0,'11111222,11111222,99999999' 
TABS,ioos:station:wmo:42043:1,1996-02-03T04:00:00Z,28.9818,-94.9186,2.0,219.867457,15.33498614,-99999.0,'11111222,11111222,99999999' 
TABS,ioos:station:wmo:42043:1,1996-02-03T04:30:00Z,28.9818,-94.9186,2.0,214.6429928,14.67107699,-99999.0,'11111222,11111222,99999999' 
TABS,ioos:station:wmo:42043:1,1996-02-03T05:00:00Z,28.9818,-94.9186,2.0,208.141325,17.06765948,-99999.0,'11111222,11111222,99999999' 
TABS,ioos:station:wmo:42043:1,1996-02-03T05:30:00Z,28.9818,-94.9186,2.0,215.2454592,13.68949963,-99999.0,'11111222,11111222,99999999' 
TABS,ioos:station:wmo:42043:1,1996-02-03T06:00:00Z,28.9818,-94.9186,2.0,211.6248437,12.77749584,-99999.0,'11111222,11111222,99999999' 
TABS,ioos:station:wmo:42043:1,1996-02-03T06:30:00Z,28.9818,-94.9186,2.0,227.3427164,12.9721124,-99999.0,'11111222,11111222,99999999' 
TABS,ioos:station:wmo:42043:1,1996-02-03T07:00:00Z,28.9818,-94.9186,2.0,214.7128061,14.13601429,-99999.0,'11111222,11111222,99999999' 
TABS,ioos:station:wmo:42043:1,1996-02-03T07:30:00Z,28.9818,-94.9186,2.0,209.4176304,16.08384593,-99999.0,'11111222,11111222,99999999' 
TABS,ioos:station:wmo:42043:1,1996-02-03T08:00:00Z,28.9818,-94.9186,2.0,210.5043713,12.62784621,-99999.0,'11111222,11111222,99999999' 
TABS,ioos:station:wmo:42043:1,1996-02-03T08:30:00Z,28.9818,-94.9186,2.0,211.6839613,14.18405443,-99999.0,'11111222,11111222,99999999' 
TABS,ioos:station:wmo:42043:1,1996-02-03T09:00:00Z,28.9818,-94.9186,2.0,211.057641,18.78255041,-99999.0,'11111222,11111222,99999999' 
TABS,ioos:station:wmo:42043:1,1996-02-03T09:30:00Z,28.9818,-94.9186,2.0,207.9772326,24.13003315,-99999.0,'11111222,11111222,99999999' 
TABS,ioos:station:wmo:42043:1,1996-02-03T10:00:00Z,28.9818,-94.9186,2.0,208.6136805,26.14293212,-99999.0,'11111222,11111222,99999999' 
TABS,ioos:station:wmo:42043:1,1996-02-03T10:30:00Z,28.9818,-94.9186,2.0,210.6798903,25.98749892,-99999.0,'11111222,11111222,99999999' 
TABS,ioos:station:wmo:42043:1,1996-02-03T11:00:00Z,28.9818,-94.9186,2.0,211.2949141,26.68219631,-99999.0,'11111222,11111222,99999999' 
TABS,ioos:station:wmo:42043:1,1996-02-03T11:30:00Z,28.9818,-94.9186,2.0,215.5771968,25.09438383,-99999.0,'11111222,11111222,99999999' 
TABS,ioos:station:wmo:42043:1,1996-02-03T12:00:00Z,28.9818,-94.9186,2.0,212.0706861,27.77938264,-99999.0,'11111222,11111222,99999999' 
TABS,ioos:station:wmo:42043:1,1996-02-03T12:30:00Z,28.9818,-94.9186,2.0,221.4007349,26.80979299,-99999.0,'11111222,11111222,99999999' 
TABS,ioos:station:wmo:42043:1,1996-02-03T13:00:00Z,28.9818,-94.9186,2.0,222.5101372,24.25544269,-99999.0,'11111222,11111222,99999999' 
TABS,ioos:station:wmo:42043:1,1996-02-03T13:30:00Z,28.9818,-94.9186,2.0,221.5922475,33.66830706,-99999.0,'11111222,11111222,99999999' 
TABS,ioos:station:wmo:42043:1,1996-02-03T14:00:00Z,28.9818,-94.9186,2.0,225.5863086,31.07897199,-99999.0,'11111222,11111222,99999999' 
TABS,ioos:station:wmo:42043:1,1996-02-03T14:30:00Z,28.9818,-94.9186,2.0,225.1979383,30.65326247,-99999.0,'11111222,11111222,99999999' 
TABS,ioos:station:wmo:42043:1,1996-02-03T15:00:00Z,28.9818,-94.9186,2.0,227.7309598,31.01357928,-99999.0,'11111222,11111222,99999999' 
TABS,ioos:station:wmo:42043:1,1996-02-03T15:30:00Z,28.9818,-94.9186,2.0,226.2741269,38.15077719,-99999.0,'11111222,11111222,99999999' 
TABS,ioos:station:wmo:42043:1,1996-02-03T16:00:00Z,28.9818,-94.9186,2.0,237.0364607,29.29607482,-99999.0,'11111222,11111222,99999999' 
TABS,ioos:station:wmo:42043:1,1996-02-03T16:30:00Z,28.9818,-94.9186,2.0,241.3560375,22.07109648,-99999.0,'11111222,11111222,99999999' 
TABS,ioos:station:wmo:42043:1,1996-02-03T17:00:00Z,28.9818,-94.9186,2.0,237.1339312,20.04894012,-99999.0,'11111222,11111222,99999999' 
TABS,ioos:station:wmo:42043:1,1996-02-03T17:30:00Z,28.9818,-94.9186,2.0,240.8996513,19.61609543,-99999.0,'11111222,11111222,99999999' 
TABS,ioos:station:wmo:42043:1,1996-02-03T18:00:00Z,28.9818,-94.9186,2.0,243.43459,13.66237534,-99999.0,'11111222,11111222,99999999' 
TABS,ioos:station:wmo:42043:1,1996-02-03T18:30:00Z,28.9818,-94.9186,2.0,245.1589991,10.99749062,-99999.0,'11111222,11111222,99999999' 
TABS,ioos:station:wmo:42043:1,1996-02-03T19:00:00Z,28.9818,-94.9186,2.0,244.9420223,10.2,-99999.0,'11111222,11111222,99999999' 
TABS,ioos:station:wmo:42043:1,1996-02-03T19:30:00Z,28.9818,-94.9186,2.0,247.1498704,10.35239103,-99999.0,'11111222,11111222,99999999' 
TABS,ioos:station:wmo:42043:1,1996-02-03T20:00:00Z,28.9818,-94.9186,2.0,243.4112802,10.99251109,-99999.0,'11111222,11111222,99999999' 
TABS,ioos:station:wmo:42043:1,1996-02-03T20:30:00Z,28.9818,-94.9186,2.0,240.4974777,9.076943318,-99999.0,'11133222,11111222,99999999' 
TABS,ioos:station:wmo:42043:1,1996-02-03T21:00:00Z,28.9818,-94.9186,2.0,225.9148724,6.640579794,-99999.0,'11133222,11111222,99999999' 
TABS,ioos:station:wmo:42043:1,1996-02-03T21:30:00Z,28.9818,-94.9186,2.0,220.1224172,7.401925425,-99999.0,'11133222,11111222,99999999' 
TABS,ioos:station:wmo:42043:1,1996-02-03T22:00:00Z,28.9818,-94.9186,2.0,220.1900208,8.770724029,-99999.0,'11133222,11111222,99999999' 
TABS,ioos:station:wmo:42043:1,1996-02-03T22:30:00Z,28.9818,-94.9186,2.0,223.4515302,7.59002635,-99999.0,'11133222,11111222,99999999' 
TABS,ioos:station:wmo:42043:1,1996-02-03T23:00:00Z,28.9818,-94.9186,2.0,194.5539695,8.316886437,-99999.0,'11133222,11111222,99999999' 
TABS,ioos:station:wmo:42043:1,1996-02-03T23:30:00Z,28.9818,-94.9186,2.0,210.2511733,8.277161349,-99999.0,'11133222,11111222,99999999' 
TABS,ioos:station:wmo:42043:1,1996-02-04T00:00:00Z,28.9818,-94.9186,2.0,224.9996843,21.07178208,-99999.0,'11111222,11111222,99999999' 
TABS,ioos:station:wmo:42043:1,1996-02-04T00:30:00Z,28.9818,-94.9186,2.0,216.9772994,18.08803195,-99999.0,'11111222,11111222,99999999' 
TABS,ioos:station:wmo:42043:1,1996-02-04T01:00:00Z,28.9818,-94.9186,2.0,217.4350002,15.20074011,-99999.0,'11111222,11111222,99999999' 
TABS,ioos:station:wmo:42043:1,1996-02-04T01:30:00Z,28.9818,-94.9186,2.0,206.2642797,12.79048474,-99999.0,'11111222,11111222,99999999' 
TABS,ioos:station:wmo:42043:1,1996-02-04T02:00:00Z,28.9818,-94.9186,2.0,208.9839565,22.14339179,-99999.0,'11111222,11111222,99999999' 
TABS,ioos:station:wmo:42043:1,1996-02-04T02:30:00Z,28.9818,-94.9186,2.0,215.9663413,20.8065855,-99999.0,'11111222,11111222,99999999' 
TABS,ioos:station:wmo:42043:1,1996-02-04T03:00:00Z,28.9818,-94.9186,2.0,214.354723,17.68503322,-99999.0,'11111222,11111222,99999999' 
TABS,ioos:station:wmo:42043:1,1996-02-04T03:30:00Z,28.9818,-94.9186,2.0,207.8017844,15.32958251,-99999.0,'11111222,11111222,99999999' 
TABS,ioos:station:wmo:42043:1,1996-02-04T04:00:00Z,28.9818,-94.9186,2.0,213.0303374,14.21790772,-99999.0,'11111222,11111222,99999999' 
TABS,ioos:station:wmo:42043:1,1996-02-04T04:30:00Z,28.9818,-94.9186,2.0,228.1965491,13.18684951,-99999.0,'11111222,11111222,99999999' 
TABS,ioos:station:wmo:42043:1,1996-02-04T05:00:00Z,28.9818,-94.9186,2.0,237.0819113,9.053529698,-99999.0,'11133222,11111222,99999999' 
TABS,ioos:station:wmo:42043:1,1996-02-04T05:30:00Z,28.9818,-94.9186,2.0,227.9555263,8.227526967,-99999.0,'11133222,11111222,99999999' 
TABS,ioos:station:wmo:42043:1,1996-02-04T06:00:00Z,28.9818,-94.9186,2.0,223.868996,10.75011628,-99999.0,'11111222,11111222,99999999' 
TABS,ioos:station:wmo:42043:1,1996-02-04T06:30:00Z,28.9818,-94.9186,2.0,234.8057541,9.299978495,-99999.0,'11133222,11111222,99999999' 
TABS,ioos:station:wmo:42043:1,1996-02-04T07:00:00Z,28.9818,-94.9186,2.0,213.1905519,14.9608322,-99999.0,'11111222,11111222,99999999' 
TABS,ioos:station:wmo:42043:1,1996-02-04T07:30:00Z,28.9818,-94.9186,2.0,227.7969213,10.86703731,-99999.0,'11111222,11111222,99999999' 
TABS,ioos:station:wmo:42043:1,1996-02-04T08:00:00Z,28.9818,-94.9186,2.0,235.1961847,10.70496147,-99999.0,'11111222,11111222,99999999' 
TABS,ioos:station:wmo:42043:1,1996-02-04T08:30:00Z,28.9818,-94.9186,2.0,233.4280133,10.75814575,-99999.0,'11111222,11111222,99999999' 
TABS,ioos:station:wmo:42043:1,1996-02-04T09:00:00Z,28.9818,-94.9186,2.0,213.4804323,12.14524187,-99999.0,'11111222,11111222,99999999' 
TABS,ioos:station:wmo:42043:1,1996-02-04T09:30:00Z,28.9818,-94.9186,2.0,224.523026,12.74957646,-99999.0,'11111222,11111222,99999999' 
TABS,ioos:station:wmo:42043:1,1996-02-04T10:00:00Z,28.9818,-94.9186,2.0,219.6573724,15.87278488,-99999.0,'11111222,11111222,99999999' 
TABS,ioos:station:wmo:42043:1,1996-02-04T10:30:00Z,28.9818,-94.9186,2.0,219.8246619,15.13011897,-99999.0,'11111222,11111222,99999999' 
TABS,ioos:station:wmo:42043:1,1996-02-04T11:00:00Z,28.9818,-94.9186,2.0,207.0243595,16.72632655,-99999.0,'11111222,11111222,99999999' 
TABS,ioos:station:wmo:42043:1,1996-02-04T11:30:00Z,28.9818,-94.9186,2.0,206.2151987,21.25645784,-99999.0,'11111222,11111222,99999999' 
TABS,ioos:station:wmo:42043:1,1996-02-04T12:00:00Z,28.9818,-94.9186,2.0,210.3946317,25.91128326,-99999.0,'11111222,11111222,99999999' 
TABS,ioos:station:wmo:42043:1,1996-02-04T12:30:00Z,28.9818,-94.9186,2.0,211.3685058,25.47332134,-99999.0,'11111222,11111222,99999999' 
TABS,ioos:station:wmo:42043:1,1996-02-04T13:00:00Z,28.9818,-94.9186,2.0,208.033153,31.0647131,-99999.0,'11111222,11111222,99999999' 
TABS,ioos:station:wmo:42043:1,1996-02-04T13:30:00Z,28.9818,-94.9186,2.0,210.2843621,27.78129227,-99999.0,'11111222,11111222,99999999' 
TABS,ioos:station:wmo:42043:1,1996-02-04T14:00:00Z,28.9818,-94.9186,2.0,207.1683906,30.98914971,-99999.0,'11111222,11111222,99999999' 
TABS,ioos:station:wmo:42043:1,1996-02-04T14:30:00Z,28.9818,-94.9186,2.0,209.6468589,42.17063078,-99999.0,'11111222,11111222,99999999' 
TABS,ioos:station:wmo:42043:1,1996-02-04T15:00:00Z,28.9818,-94.9186,2.0,212.5541279,39.60227897,-99999.0,'11111222,11111222,99999999' 
TABS,ioos:station:wmo:42043:1,1996-02-04T15:30:00Z,28.9818,-94.9186,2.0,216.684578,37.16019376,-99999.0,'11111222,11111222,99999999' 
TABS,ioos:station:wmo:42043:1,1996-02-04T16:00:00Z,28.9818,-94.9186,2.0,211.8454816,44.89850443,-99999.0,'11111222,11111222,99999999' 